Regional Weather Roundup
Issued by NWS

Home | Current Version | Previous Version | Text Only | Print | Product List | Glossary Off
Versions: 1 2 3 4 5 6 7 8 9 10 11 12 13 14 15 16 17 18 19 20 21 22 23 24 25 26 27 28

000
ASUS45 KTFX 301310
RWRMT
MONTANA REGIONAL WEATHER ROUNDUP
NATIONAL WEATHER SERVICE GREAT FALLS MT
700 AM MDT SAT JUL 30 2016

NOTE: "FAIR" INDICATES FEW OR NO CLOUDS BELOW 12000 FEET WITH NO
SIGNIFICANT WEATHER AND/OR OBSTRUCTIONS TO VISIBILITY.

MTZ001>007-043-301400-
WEST OF THE DIVIDE

CITY           SKY/WX    TMP DP  RH WIND       PRES   REMARKS
KALISPELL      CLOUDY    59  55  87 N10       29.82R
MISSOULA       CLEAR     56  48  74 CALM      29.89R
BUTTE          CLEAR     50  40  68 CALM      30.03R
MULLAN PASS    CLEAR     65  39  38 SW7       30.00S
DEER LODGE       N/A     54  45  71 CALM      29.99R
EUREKA           N/A     61  52  72 SE3         N/A
HAMILTON         N/A     63  46  55 S9        29.90R
LIBBY            N/A     54  46  76 CALM      29.81R
PLAINS           N/A     56  49  77 CALM      29.84R
RONAN            N/A     54  50  86 CALM      29.88S
$$

MTZ008-052>055-301400-
SOUTHWEST MONTANA

CITY           SKY/WX    TMP DP  RH WIND       PRES   REMARKS
BOZEMAN        CLEAR     60  50  69 CALM      29.95R
DILLON         CLEAR     55  40  56 SW13      29.99R
W YELLOWSTONE  CLOUDY    39  36  87 CALM      30.12R
THREE FORKS      N/A     53  53 100 CALM      29.94R
TWIN BRIDGES     N/A     50  39  65 CALM      29.98R
$$

MTZ009-010-012-014-046-048-049-054-301400-
EAST SLOPES AND CENTRAL MONTANA

CITY           SKY/WX    TMP DP  RH WIND       PRES   REMARKS
CUT BANK       CLEAR     57  51  80 NW5       29.84S
GREAT FALLS    PTCLDY    61  49  64 SW3       29.84S
MALMSTROM AFB  PTCLDY    59  51  75 S3        29.85S
HELENA         CLEAR     61  47  59 W6        29.90R
CONRAD           N/A     53  53 100 CALM      29.87S
$$

MTZ011-013-016-021-045-047-050-051-301400-
NORTH CENTRAL MONTANA

CITY           SKY/WX    TMP DP  RH WIND       PRES   REMARKS
HAVRE          CLEAR     62  58  86 E5        29.80S
CHINOOK          N/A     63  59  88 E8        29.81S
$$

MTZ017>020-022>027-061-062-301400-
NORTHEAST MONTANA

CITY           SKY/WX    TMP DP  RH WIND       PRES   REMARKS
GLASGOW        SUNNY     61  53  75 E10       29.87R
JORDAN           N/A     61  58  90 CALM      29.88S
SIDNEY         SUNNY     56  50  80 CALM      29.91S
WOLF POINT     SUNNY     59  53  80 E5        29.89S
PLENTYWOOD       N/A     61  57  88 CALM      29.91S
POPLAR           N/A     57  54  88 CALM      29.90S
SCOBEY           N/A     52  40  63 CALM      29.90S
$$

MTZ028>42-056>058-301400-
SOUTHCENTRAL AND SOUTHEAST MONTANA

CITY           SKY/WX    TMP DP  RH WIND       PRES   REMARKS
BAKER          SUNNY     59  56  89 CALM      29.93S
BILLINGS       PTCLDY    64  52  64 NW6       29.90S
LIVINGSTON     CLEAR     56  48  74 W3        29.96S
MILES CITY     SUNNY     64  53  67 NE7       29.88S
EKALAKA          N/A     67  56  67 CALM      29.93S
FORSYTH          N/A     64  55  72 E8        29.87S
LAUREL           N/A     59  52  77 CALM      29.91F
ROUNDUP          N/A     59  50  72 CALM      29.83S
$$

REGIONAL REPORTS...DAKOTAS

CITY           SKY/WX    TMP DP  RH WIND       PRES   REMARKS
WILLISTON      SUNNY     61  55  81 CALM      29.91R
MINOT          SUNNY     68  61  78 S9        29.90R
DICKINSON      PTSUNNY   55  55 100 CALM      29.91S FOG
BEACH            N/A     57  57 100 CALM      29.96S
CROSBY           N/A     61  61 100 SW3       29.92S
WATFORD CITY     N/A    N/A N/A N/A MISG        N/A
BISMARCK       CLOUDY    64  63  96 E12       29.94R
GRAND FORKS    PTSUNNY   67  62  84 SE9       29.96R
FARGO          SUNNY     68  60  75 S8        29.98R
BUFFALO SD       N/A     59  56  89 CALM      29.87S
RAPID CITY     SUNNY     60  57  89 CALM      29.95R
$$

REGIONAL REPORTS...WYOMING/IDAHO/WASHINGTON

CITY           SKY/WX    TMP DP  RH WIND       PRES   REMARKS
GILLETTE       SUNNY     63  56  78 S7        29.98R
SHERIDAN       SUNNY     60  49  66 CALM      29.93S
BUFFALO WY     SUNNY     67  47  48 CALM      30.01S
CODY           CLEAR     57  48  72 SW5       30.00S
YELLOWSTONE LA   N/A     43  41  93 NW3       30.21R
IDAHO FALLS    PTCLDY    59  46  62 NE3       29.98R
SALMON         CLEAR     54  43  66 CALM      29.94R
BOISE          CLEAR     70  38  31 CALM      29.82R HAZE
SPOKANE        PTCLDY    65  45  48 SE8       29.77R
$$

REGIONAL REPORTS...ALBERTA

CITY           SKY/WX    TMP DP  RH WIND       PRES   REMARKS
EDMONTON       CLEAR     57  55  94 W5        29.79R
CALGARY        MOCLDY    57  52  82 N13G20    29.80F
LETHBRIDGE     MOCLDY    63  55  77 CALM      29.78R
MEDICINE HAT   PTCLDY    77  57  50 SW3       29.74S
WATERTON GATE    N/A     54  48  82 E2          N/A
CARDSTON         N/A     61  52  72 NW1         N/A
MILK RIVER       N/A     61  52  72 SW3         N/A
ONEFOUR          N/A     61  54  77 E7          N/A
$$

REGIONAL REPORTS...SASKATCHEWAN

CITY           SKY/WX    TMP DP  RH WIND       PRES   REMARKS
SWIFT CURRENT  SUNNY     61  57  88 S8        29.84F
REGINA         MOSUNNY   57  55  94 SE5       29.87S
SASKATOON      MOSUNNY   63  61  94 S3        29.82S
CYPRESS HILLS    N/A     61  52  72 S7          N/A
VAL MARIE        N/A     57  54  88 NE5         N/A
ROCKGLEN         N/A     59  52  77 S6          N/A
ASSINIBOIA       N/A     59  57  94 NW8         N/A
$$




USA.gov is the U.S. government's official web portal to all federal, state and local government web resources and services.